Location: Northcutt
(34.7304°N, 84.4305°W)
Time: 18:39:08
(UTC+00:00)

Transit 2A Rocket - Pass Details

Date: 07 October 2022
Orbit: 589 x 911 km, 66.7° (Epoch: 02 December)

Event Time Altitude Azimuth Distance (km) Brightness Sun altitude
Rises 09:11:58 0° 184° (S) 2,866 - -30.4°
Reaches altitude 10° 09:14:24 10° 174° (S) 1,938 - -29.9°
Exits shadow 09:18:05 32° 116° (ESE) 1,014 6.0 -29.2°
Maximum altitude 09:18:16 32° 111° (ESE) 1,011 6.0 -29.1°
Drops below altitude 10° 09:22:05 10° 47° (NE) 1,918 7.8 -28.4°
Sets 09:24:29 0° 38° (NE) 2,832 8.7 -27.9°
